| time (UTC) | temp F | wind direction | speed MPH | gust MPH | rain 1hr in | rain 24hr in | rain mn in | humidity % | barometer mb |
| 20260510214221 | 67 | 139 | 4.0 | 11.0 | 0.00 | 0.03 | 0.00 | 47 | 1021.6 |
| 20260510213738 | 67 | 203 | 4.0 | 8.0 | 0.00 | 0.03 | 0.00 | 48 | 1021.6 |
| 20260510213214 | 67 | 196 | 5.0 | 12.0 | 0.00 | 0.03 | 0.00 | 46 | 1021.7 |
| 20260510212711 | 67 | 163 | 6.0 | 15.0 | 0.00 | 0.03 | 0.00 | 50 | 1021.8 |
| 20260510212228 | 67 | 123 | 3.0 | 15.0 | 0.00 | 0.03 | 0.00 | 49 | 1021.8 |
| 20260510211725 | 66 | 141 | 6.0 | 16.0 | 0.00 | 0.03 | 0.00 | 50 | 1021.8 |
| 20260510211222 | 66 | 174 | 10.0 | 17.0 | 0.00 | 0.03 | 0.00 | 51 | 1021.8 |
| 20260510210719 | 66 | 130 | 10.0 | 17.0 | 0.00 | 0.03 | 0.00 | 52 | 1021.9 |
| 20260510210220 | 65 | 140 | 10.0 | 16.0 | 0.00 | 0.03 | 0.00 | 53 | 1021.9 |
| 20260510205717 | 65 | 145 | 8.0 | 16.0 | 0.00 | 0.03 | 0.00 | 52 | 1022.0 |
| 20260510205213 | 65 | 153 | 11.0 | 18.0 | 0.00 | 0.03 | 0.00 | 52 | 1022.1 |
| 20260510204730 | 66 | 144 | 11.0 | 18.0 | 0.00 | 0.03 | 0.00 | 51 | 1022.3 |
| 20260510204247 | 66 | 164 | 14.0 | 18.0 | 0.00 | 0.03 | 0.00 | 51 | 1022.2 |
| 20260510203723 | 66 | 150 | 9.0 | 18.0 | 0.00 | 0.03 | 0.00 | 52 | 1022.2 |
| 20260510203240 | 65 | 165 | 13.0 | 19.0 | 0.00 | 0.03 | 0.00 | 54 | 1022.2 |
| 20260510202736 | 64 | 159 | 12.0 | 19.0 | 0.00 | 0.03 | 0.00 | 55 | 1022.5 |
| 20260510202216 | 65 | 132 | 13.0 | 20.0 | 0.00 | 0.03 | 0.00 | 55 | 1022.3 |
| 20260510201733 | 65 | 126 | 16.0 | 20.0 | 0.00 | 0.03 | 0.00 | 54 | 1022.4 |
| 20260510201228 | 66 | 145 | 15.0 | 20.0 | 0.00 | 0.03 | 0.00 | 55 | 1022.5 |
| 20260510200725 | 66 | 128 | 16.0 | 20.0 | 0.00 | 0.03 | 0.00 | 54 | 1022.4 |
| 20260510200222 | 66 | 113 | 13.0 | 19.0 | 0.00 | 0.03 | 0.00 | 53 | 1022.4 |
| 20260510195738 | 67 | 155 | 6.0 | 19.0 | 0.00 | 0.03 | 0.00 | 50 | 1022.5 |
| 20260510195213 | 68 | 115 | 3.0 | 7.0 | 0.00 | 0.03 | 0.00 | 45 | 1022.4 |
| 20260510194730 | 67 | 139 | 3.0 | 8.0 | 0.00 | 0.03 | 0.00 | 44 | 1022.4 |
| 20260510194227 | 66 | 184 | 5.0 | 11.0 | 0.00 | 0.03 | 0.00 | 47 | 1022.6 |
| 20260510193728 | 65 | 248 | 7.0 | 11.0 | 0.00 | 0.03 | 0.00 | 47 | 1022.6 |
| 20260510193223 | 64 | 9 | 5.0 | 8.0 | 0.00 | 0.03 | 0.00 | 47 | 1022.6 |
| 20260510192720 | 64 | 327 | 5.0 | 9.0 | 0.00 | 0.03 | 0.00 | 48 | 1022.6 |
| 20260510192217 | 64 | 265 | 4.0 | 6.0 | 0.00 | 0.03 | 0.00 | 48 | 1022.6 |
| 20260510191713 | 64 | 134 | 1.0 | 5.0 | 0.00 | 0.03 | 0.00 | 48 | 1022.6 |
| 20260510191250 | 64 | 279 | 3.0 | 9.0 | 0.00 | 0.03 | 0.00 | 50 | 1022.7 |
| 20260510190726 | 64 | 315 | 5.0 | 9.0 | 0.00 | 0.03 | 0.00 | 47 | 1022.8 |
| 20260510190223 | 64 | 282 | 3.0 | 8.0 | 0.00 | 0.03 | 0.00 | 52 | 1022.8 |
| 20260510185724 | 63 | 258 | 3.0 | 10.0 | 0.00 | 0.03 | 0.00 | 50 | 1022.9 |
| 20260510185240 | 64 | 294 | 2.0 | 7.0 | 0.00 | 0.03 | 0.00 | 50 | 1022.9 |
| 20260510184715 | 63 | 292 | 2.0 | 6.0 | 0.00 | 0.03 | 0.00 | 51 | 1023.0 |
| 20260510184212 | 63 | 321 | 4.0 | 8.0 | 0.00 | 0.03 | 0.00 | 52 | 1023.1 |
| 20260510183728 | 63 | 315 | 3.0 | 8.0 | 0.00 | 0.03 | 0.00 | 51 | 1023.1 |
| 20260510183224 | 63 | 19 | 2.0 | 9.0 | 0.00 | 0.03 | 0.00 | 51 | 1023.1 |
| 20260510182720 | 63 | 326 | 3.0 | 9.0 | 0.00 | 0.03 | 0.00 | 52 | 1023.1 |
| 20260510182217 | 63 | 74 | 2.0 | 6.0 | 0.00 | 0.03 | 0.00 | 52 | 1023.1 |
| 20260510181734 | 62 | 9 | 2.0 | 9.0 | 0.00 | 0.03 | 0.00 | 54 | 1023.1 |
| 20260510181213 | 62 | 323 | 2.0 | 10.0 | 0.00 | 0.03 | 0.00 | 57 | 1023.1 |
| 20260510180749 | 62 | 346 | 7.0 | 12.0 | 0.00 | 0.03 | 0.00 | 54 | 1023.1 |
| 20260510180245 | 62 | 290 | 7.0 | 12.0 | 0.00 | 0.03 | 0.00 | 53 | 1023.2 |
| 20260510175720 | 63 | 16 | 5.0 | 9.0 | 0.00 | 0.03 | 0.00 | 52 | 1023.1 |
| 20260510175217 | 63 | 325 | 3.0 | 9.0 | 0.00 | 0.03 | 0.00 | 53 | 1023.2 |
| 20260510174714 | 63 | 182 | 2.0 | 5.0 | 0.00 | 0.03 | 0.00 | 55 | 1023.2 |
| 20260510174231 | 62 | 55 | 1.0 | 10.0 | 0.00 | 0.03 | 0.00 | 55 | 1023.2 |
| 20260510173727 | 61 | 311 | 6.0 | 10.0 | 0.00 | 0.03 | 0.00 | 57 | 1023.2 |
| 20260510173224 | 61 | 298 | 3.0 | 8.0 | 0.00 | 0.03 | 0.00 | 58 | 1023.2 |
| 20260510172725 | 60 | 16 | 2.0 | 9.0 | 0.00 | 0.03 | 0.00 | 60 | 1023.3 |
| 20260510172242 | 59 | 291 | 4.0 | 9.0 | 0.00 | 0.03 | 0.00 | 62 | 1023.4 |
| 20260510171718 | 59 | 306 | 6.0 | 9.0 | 0.00 | 0.03 | 0.00 | 61 | 1023.4 |
| 20260510171218 | 59 | 323 | 3.0 | 5.0 | 0.00 | 0.03 | 0.00 | 61 | 1023.4 |
| 20260510170730 | 58 | 274 | 2.0 | 6.0 | 0.00 | 0.03 | 0.00 | 63 | 1023.4 |
| 20260510170227 | 58 | 350 | 3.0 | 6.0 | 0.00 | 0.03 | 0.00 | 64 | 1023.4 |
| 20260510165724 | 58 | 271 | 2.0 | 7.0 | 0.00 | 0.03 | 0.00 | 64 | 1023.4 |
| 20260510165220 | 58 | 284 | 6.0 | 7.0 | 0.00 | 0.03 | 0.00 | 65 | 1023.3 |
| 20260510164721 | 58 | 313 | 4.0 | 10.0 | 0.00 | 0.03 | 0.00 | 63 | 1023.4 |
| 20260510164221 | 59 | 340 | 6.0 | 10.0 | 0.00 | 0.03 | 0.00 | 62 | 1023.4 |
| 20260510163714 | 60 | 302 | 4.0 | 9.0 | 0.00 | 0.03 | 0.00 | 62 | 1023.3 |
| 20260510163231 | 60 | 300 | 4.0 | 10.0 | 0.00 | 0.03 | 0.00 | 62 | 1023.3 |
| 20260510162726 | 60 | 288 | 6.0 | 10.0 | 0.00 | 0.03 | 0.00 | 64 | 1023.3 |
| 20260510162222 | 59 | 278 | 4.0 | 9.0 | 0.00 | 0.03 | 0.00 | 65 | 1023.3 |
| 20260510161719 | 59 | 329 | 4.0 | 12.0 | 0.00 | 0.03 | 0.00 | 68 | 1023.2 |
| 20260510161220 | 58 | 241 | 3.0 | 12.0 | 0.00 | 0.03 | 0.00 | 66 | 1023.2 |
| 20260510160716 | 58 | 315 | 4.0 | 8.0 | 0.00 | 0.03 | 0.00 | 67 | 1023.3 |
| 20260510160213 | 57 | 271 | 4.0 | 6.0 | 0.00 | 0.03 | 0.00 | 68 | 1023.3 |
| 20260510155730 | 57 | 288 | 1.0 | 8.0 | 0.00 | 0.03 | 0.00 | 66 | 1023.3 |
| 20260510155226 | 57 | 261 | 6.0 | 8.0 | 0.00 | 0.03 | 0.00 | 68 | 1023.2 |
| 20260510154724 | 57 | 323 | 4.0 | 9.0 | 0.00 | 0.03 | 0.00 | 67 | 1023.3 |
| 20260510154221 | 57 | 308 | 6.0 | 9.0 | 0.00 | 0.03 | 0.00 | 69 | 1023.3 |
| 20260510153738 | 56 | 344 | 5.0 | 8.0 | 0.00 | 0.03 | 0.00 | 70 | 1023.3 |
| 20260510153217 | 55 | 245 | 5.0 | 8.0 | 0.00 | 0.03 | 0.00 | 72 | 1023.3 |
| 20260510152734 | 55 | 273 | 3.0 | 10.0 | 0.00 | 0.03 | 0.00 | 74 | 1023.2 |
| 20260510152229 | 55 | 236 | 8.0 | 10.0 | 0.00 | 0.03 | 0.00 | 76 | 1023.2 |
| 20260510151727 | 54 | 267 | 5.0 | 9.0 | 0.00 | 0.03 | 0.00 | 80 | 1023.2 |
| 20260510151223 | 54 | 252 | 4.0 | 9.0 | 0.00 | 0.03 | 0.00 | 81 | 1023.1 |
| 20260510150719 | 53 | 265 | 5.0 | 9.0 | 0.00 | 0.03 | 0.00 | 82 | 1023.2 |
| 20260510150215 | 53 | 260 | 6.0 | 8.0 | 0.00 | 0.03 | 0.00 | 83 | 1023.1 |
| 20260510145712 | 52 | 207 | 5.0 | 9.0 | 0.00 | 0.03 | 0.00 | 85 | 1023.1 |
| 20260510145212 | 52 | 245 | 6.0 | 9.0 | 0.00 | 0.03 | 0.00 | 86 | 1023.2 |
| 20260510144729 | 51 | 268 | 6.0 | 8.0 | 0.00 | 0.03 | 0.00 | 85 | 1023.2 |
| 20260510144226 | 51 | 279 | 5.0 | 8.0 | 0.00 | 0.03 | 0.00 | 86 | 1023.2 |
| 20260510143743 | 50 | 266 | 4.0 | 6.0 | 0.00 | 0.03 | 0.00 | 86 | 1023.2 |
| 20260510143239 | 50 | 265 | 3.0 | 6.0 | 0.00 | 0.03 | 0.00 | 86 | 1023.2 |
| 20260510142714 | 50 | 295 | 3.0 | 7.0 | 0.00 | 0.03 | 0.00 | 86 | 1023.2 |
| 20260510142229 | 50 | 281 | 5.0 | 7.0 | 0.00 | 0.03 | 0.00 | 86 | 1023.2 |
| 20260510141725 | 49 | 291 | 3.0 | 6.0 | 0.00 | 0.03 | 0.00 | 87 | 1023.3 |
| 20260510141222 | 49 | 293 | 4.0 | 8.0 | 0.00 | 0.03 | 0.00 | 88 | 1023.3 |
| 20260510140743 | 49 | 329 | 4.0 | 8.0 | 0.00 | 0.03 | 0.00 | 88 | 1023.4 |
| 20260510140218 | 49 | 309 | 4.0 | 8.0 | 0.00 | 0.03 | 0.00 | 88 | 1023.4 |
| 20260510135715 | 49 | 321 | 3.0 | 6.0 | 0.00 | 0.03 | 0.00 | 88 | 1023.4 |
| 20260510135211 | 48 | 346 | 3.0 | 8.0 | 0.00 | 0.03 | 0.00 | 89 | 1023.4 |
| 20260510134728 | 48 | 346 | 5.0 | 8.0 | 0.00 | 0.03 | 0.00 | 89 | 1023.5 |
| 20260510134224 | 48 | 329 | 4.0 | 6.0 | 0.00 | 0.03 | 0.00 | 89 | 1023.4 |
| 20260510133721 | 48 | 329 | 4.0 | 6.0 | 0.00 | 0.03 | 0.00 | 89 | 1023.4 |
| 20260510133218 | 48 | 340 | 3.0 | 4.0 | 0.00 | 0.03 | 0.00 | 89 | 1023.3 |
| 20260510132719 | 48 | 338 | 2.0 | 5.0 | 0.00 | 0.03 | 0.00 | 89 | 1023.3 |
| 20260510132216 | 48 | 346 | 3.0 | 5.0 | 0.00 | 0.03 | 0.00 | 89 | 1023.4 |
| 20260510131734 | 48 | 355 | 3.0 | 6.0 | 0.00 | 0.03 | 0.00 | 90 | 1023.2 |
| 20260510131228 | 47 | 11 | 4.0 | 6.0 | 0.00 | 0.03 | 0.00 | 90 | 1023.3 |
| 20260510130723 | 47 | 347 | 4.0 | 6.0 | 0.00 | 0.03 | 0.00 | 90 | 1023.3 |
| 20260510130219 | 47 | 344 | 4.0 | 6.0 | 0.00 | 0.03 | 0.00 | 90 | 1023.2 |
| 20260510125736 | 47 | 360 | 5.0 | 6.0 | 0.00 | 0.03 | 0.00 | 90 | 1023.2 |
| 20260510125212 | 47 | 350 | 5.0 | 10.0 | 0.00 | 0.03 | 0.00 | 90 | 1023.1 |
| 20260510124729 | 47 | 333 | 6.0 | 10.0 | 0.00 | 0.03 | 0.00 | 90 | 1023.1 |
| 20260510124210 | 47 | 350 | 6.0 | 10.0 | 0.00 | 0.03 | 0.00 | 90 | 1023.0 |
| 20260510123726 | 47 | 333 | 5.0 | 9.0 | 0.00 | 0.03 | 0.00 | 91 | 1022.9 |
| 20260510123223 | 47 | 360 | 7.0 | 10.0 | 0.00 | 0.03 | 0.00 | 91 | 1022.9 |
| 20260510122720 | 47 | 350 | 5.0 | 10.0 | 0.00 | 0.03 | 0.00 | 91 | 1022.9 |
| 20260510122217 | 47 | 13 | 6.0 | 10.0 | 0.00 | 0.03 | 0.00 | 91 | 1022.8 |
| 20260510121713 | 47 | 355 | 6.0 | 9.0 | 0.00 | 0.03 | 0.00 | 91 | 1022.7 |
| 20260510121211 | 47 | 321 | 6.0 | 9.0 | 0.00 | 0.03 | 0.00 | 92 | 1022.6 |
| 20260510120711 | 47 | 342 | 6.0 | 10.0 | 0.00 | 0.03 | 0.00 | 92 | 1022.6 |
| 20260510120227 | 47 | 344 | 7.0 | 10.0 | 0.00 | 0.03 | 0.00 | 92 | 1022.6 |
| 20260510115725 | 47 | 324 | 5.0 | 8.0 | 0.00 | 0.03 | 0.00 | 92 | 1022.5 |
| 20260510115222 | 47 | 345 | 5.0 | 9.0 | 0.00 | 0.03 | 0.00 | 92 | 1022.4 |
| 20260510114719 | 47 | 340 | 5.0 | 9.0 | 0.00 | 0.03 | 0.00 | 92 | 1022.3 |
| 20260510114215 | 47 | 340 | 5.0 | 9.0 | 0.00 | 0.03 | 0.00 | 92 | 1022.2 |
| 20260510113712 | 47 | 323 | 4.0 | 8.0 | 0.00 | 0.03 | 0.00 | 92 | 1022.3 |
| 20260510113213 | 47 | 339 | 6.0 | 8.0 | 0.00 | 0.03 | 0.00 | 92 | 1022.2 |
| 20260510112709 | 47 | 325 | 4.0 | 8.0 | 0.00 | 0.03 | 0.00 | 92 | 1022.1 |
| 20260510112246 | 47 | 323 | 5.0 | 6.0 | 0.00 | 0.03 | 0.00 | 92 | 1022.0 |
| 20260510111721 | 47 | 339 | 4.0 | 6.0 | 0.00 | 0.03 | 0.00 | 92 | 1022.0 |
| 20260510111219 | 47 | 333 | 4.0 | 4.0 | 0.00 | 0.03 | 0.00 | 91 | 1022.0 |
| 20260510110716 | 47 | 335 | 3.0 | 4.0 | 0.00 | 0.03 | 0.00 | 91 | 1021.9 |
| 20260510110233 | 47 | 321 | 2.0 | 6.0 | 0.00 | 0.03 | 0.00 | 91 | 1021.9 |
| 20260510105749 | 47 | 315 | 4.0 | 6.0 | 0.00 | 0.03 | 0.00 | 91 | 1022.0 |
| 20260510105244 | 47 | 298 | 5.0 | 7.0 | 0.00 | 0.03 | 0.00 | 91 | 1022.0 |
| 20260510104741 | 47 | 306 | 4.0 | 5.0 | 0.00 | 0.03 | 0.00 | 91 | 1021.9 |
| 20260510104220 | 47 | 324 | 4.0 | 4.0 | 0.00 | 0.03 | 0.00 | 91 | 1021.9 |
| 20260510103716 | 47 | 309 | 3.0 | 5.0 | 0.00 | 0.03 | 0.00 | 91 | 1021.8 |
| 20260510103213 | 47 | 333 | 3.0 | 5.0 | 0.00 | 0.03 | 0.00 | 91 | 1021.6 |
| 20260510102729 | 47 | 348 | 3.0 | 4.0 | 0.00 | 0.03 | 0.00 | 90 | 1021.4 |
| 20260510102224 | 47 | 355 | 3.0 | 5.0 | 0.00 | 0.03 | 0.00 | 91 | 1021.5 |
| 20260510101720 | 47 | 9 | 2.0 | 5.0 | 0.00 | 0.03 | 0.00 | 91 | 1021.4 |
| 20260510101217 | 47 | 9 | 4.0 | 5.0 | 0.00 | 0.03 | 0.00 | 91 | 1021.2 |
| 20260510100714 | 47 | 336 | 3.0 | 5.0 | 0.00 | 0.03 | 0.00 | 91 | 1021.5 |
| 20260510100215 | 47 | 337 | 3.0 | 6.0 | 0.00 | 0.03 | 0.00 | 91 | 1021.5 |
| 20260510095732 | 47 | 340 | 4.0 | 6.0 | 0.00 | 0.03 | 0.00 | 91 | 1021.7 |
| 20260510095228 | 47 | 320 | 3.0 | 6.0 | 0.00 | 0.03 | 0.00 | 91 | 1021.8 |
| 20260510094725 | 47 | 324 | 5.0 | 6.0 | 0.00 | 0.03 | 0.00 | 91 | 1021.9 |
| 20260510094221 | 47 | 327 | 5.0 | 6.0 | 0.00 | 0.03 | 0.00 | 91 | 1021.8 |
| 20260510093719 | 47 | 329 | 4.0 | 6.0 | 0.00 | 0.03 | 0.00 | 91 | 1021.7 |
| 20260510093216 | 47 | 331 | 4.0 | 6.0 | 0.00 | 0.03 | 0.00 | 91 | 1021.6 |
| 20260510092716 | 47 | 333 | 4.0 | 6.0 | 0.00 | 0.03 | 0.00 | 91 | 1021.6 |
| 20260510092234 | 48 | 334 | 3.0 | 5.0 | 0.00 | 0.03 | 0.00 | 90 | 1021.4 |
| 20260510091728 | 48 | 334 | 3.0 | 5.0 | 0.00 | 0.03 | 0.03 | 90 | 1021.5 |
| 20260510091225 | 48 | 311 | 3.0 | 4.0 | 0.00 | 0.03 | 0.03 | 90 | 1021.5 |
| 20260510090721 | 48 | 290 | 2.0 | 3.0 | 0.00 | 0.03 | 0.03 | 90 | 1021.4 |
| 20260510090218 | 48 | 290 | 2.0 | 4.0 | 0.00 | 0.03 | 0.03 | 91 | 1021.3 |
| 20260510085716 | 48 | 290 | 2.0 | 5.0 | 0.00 | 0.03 | 0.03 | 91 | 1021.3 |
| 20260510085212 | 48 | 287 | 4.0 | 6.0 | 0.00 | 0.03 | 0.03 | 91 | 1021.4 |
| 20260510084713 | 48 | 295 | 4.0 | 6.0 | 0.00 | 0.03 | 0.03 | 91 | 1021.3 |
| 20260510084209 | 48 | 312 | 3.0 | 8.0 | 0.00 | 0.03 | 0.03 | 91 | 1021.1 |
| 20260510083727 | 48 | 326 | 4.0 | 9.0 | 0.00 | 0.03 | 0.03 | 91 | 1021.2 |
| 20260510083223 | 48 | 347 | 6.0 | 9.0 | 0.00 | 0.03 | 0.03 | 91 | 1021.1 |
| 20260510082720 | 48 | 321 | 6.0 | 9.0 | 0.00 | 0.03 | 0.03 | 90 | 1021.0 |
| 20260510082238 | 48 | 326 | 5.0 | 8.0 | 0.00 | 0.03 | 0.03 | 90 | 1020.9 |
| 20260510081734 | 48 | 334 | 5.0 | 8.0 | 0.00 | 0.03 | 0.03 | 90 | 1020.7 |
| 20260510081210 | 48 | 341 | 5.0 | 8.0 | 0.00 | 0.03 | 0.03 | 90 | 1020.5 |
| 20260510080711 | 48 | 360 | 5.0 | 8.0 | 0.00 | 0.03 | 0.03 | 90 | 1020.6 |
| 20260510080227 | 48 | 355 | 5.0 | 9.0 | 0.00 | 0.03 | 0.03 | 90 | 1020.7 |
| 20260510075724 | 47 | 22 | 6.0 | 9.0 | 0.00 | 0.03 | 0.03 | 90 | 1020.6 |
| 20260510075221 | 47 | 349 | 5.0 | 10.0 | 0.00 | 0.03 | 0.03 | 90 | 1020.6 |
| 20260510074738 | 47 | 351 | 6.0 | 11.0 | 0.00 | 0.03 | 0.03 | 90 | 1020.6 |
| 20260510074213 | 47 | 17 | 6.0 | 10.0 | 0.00 | 0.03 | 0.03 | 91 | 1020.6 |
| 20260510073709 | 47 | 348 | 6.0 | 10.0 | 0.00 | 0.03 | 0.03 | 91 | 1020.7 |
| 20260510073246 | 47 | 355 | 6.0 | 10.0 | 0.00 | 0.03 | 0.03 | 90 | 1020.8 |
| 20260510072722 | 47 | 348 | 6.0 | 8.0 | 0.00 | 0.03 | 0.03 | 90 | 1020.6 |
| 20260510072223 | 47 | 336 | 5.0 | 8.0 | 0.00 | 0.03 | 0.03 | 90 | 1020.6 |
| 20260510071719 | 47 | 347 | 5.0 | 6.0 | 0.00 | 0.03 | 0.03 | 90 | 1020.4 |
| 20260510071214 | 47 | 9 | 3.0 | 8.0 | 0.00 | 0.03 | 0.03 | 90 | 1020.3 |
| 20260510070712 | 47 | 24 | 5.0 | 9.0 | 0.00 | 0.03 | 0.03 | 90 | 1020.4 |
| 20260510070249 | 47 | 348 | 5.0 | 9.0 | 0.00 | 0.03 | 0.03 | 90 | 1020.3 |
| 20260510065725 | 47 | 5 | 6.0 | 9.0 | 0.00 | 0.03 | 0.03 | 90 | 1020.3 |
| 20260510065222 | 47 | 24 | 4.0 | 9.0 | 0.00 | 0.03 | 0.03 | 90 | 1020.3 |
| 20260510064718 | 47 | 24 | 7.0 | 9.0 | 0.00 | 0.03 | 0.03 | 90 | 1020.4 |
| 20260510064218 | 48 | 39 | 7.0 | 10.0 | 0.00 | 0.03 | 0.03 | 90 | 1020.2 |
| 20260510063734 | 48 | 39 | 7.0 | 12.0 | 0.00 | 0.03 | 0.03 | 90 | 1020.2 |
| 20260510063209 | 48 | 43 | 9.0 | 12.0 | 0.00 | 0.03 | 0.03 | 90 | 1019.9 |
| 20260510062726 | 48 | 46 | 7.0 | 12.0 | 0.00 | 0.03 | 0.03 | 90 | 1019.8 |
| 20260510062223 | 49 | 38 | 9.0 | 14.0 | 0.00 | 0.03 | 0.03 | 90 | 1019.7 |
| 20260510061719 | 49 | 48 | 11.0 | 14.0 | 0.00 | 0.03 | 0.03 | 90 | 1019.5 |
| 20260510061230 | 49 | 58 | 10.0 | 17.0 | 0.00 | 0.03 | 0.03 | 90 | 1019.5 |
| 20260510060739 | 49 | 53 | 11.0 | 17.0 | 0.00 | 0.03 | 0.03 | 90 | 1019.3 |
| 20260510060219 | 49 | 44 | 13.0 | 18.0 | 0.00 | 0.03 | 0.03 | 90 | 1019.3 |
| 20260510055715 | 49 | 45 | 15.0 | 18.0 | 0.00 | 0.03 | 0.03 | 90 | 1019.5 |
| 20260510055212 | 49 | 51 | 13.0 | 17.0 | 0.00 | 0.03 | 0.03 | 90 | 1019.5 |
| 20260510054729 | 50 | 37 | 13.0 | 19.0 | 0.00 | 0.03 | 0.03 | 90 | 1019.6 |
| 20260510054225 | 50 | 40 | 14.0 | 20.0 | 0.00 | 0.03 | 0.03 | 90 | 1019.2 |
| 20260510053722 | 50 | 49 | 15.0 | 20.0 | 0.00 | 0.03 | 0.03 | 90 | 1018.6 |
| 20260510053219 | 50 | 65 | 15.0 | 18.0 | 0.00 | 0.03 | 0.03 | 90 | 1018.8 |
| 20260510052715 | 50 | 74 | 13.0 | 15.0 | 0.00 | 0.03 | 0.03 | 90 | 1019.3 |
| 20260510052216 | 50 | 88 | 10.0 | 14.0 | 0.00 | 0.03 | 0.03 | 90 | 1019.4 |
| 20260510051713 | 50 | 88 | 11.0 | 15.0 | 0.00 | 0.03 | 0.03 | 90 | 1019.3 |
| 20260510051249 | 50 | 91 | 12.0 | 15.0 | 0.00 | 0.03 | 0.03 | 89 | 1019.1 |
| 20260510050724 | 50 | 95 | 9.0 | 14.0 | 0.01 | 0.03 | 0.03 | 89 | 1019.5 |
| 20260510050220 | 50 | 84 | 10.0 | 15.0 | 0.01 | 0.03 | 0.03 | 89 | 1019.8 |
| 20260510045718 | 50 | 78 | 11.0 | 15.0 | 0.01 | 0.03 | 0.03 | 89 | 1019.9 |
| 20260510045215 | 50 | 69 | 12.0 | 15.0 | 0.01 | 0.03 | 0.03 | 89 | 1019.8 |
| 20260510044711 | 50 | 51 | 12.0 | 16.0 | 0.02 | 0.03 | 0.03 | 89 | 1020.0 |
| 20260510044210 | 50 | 52 | 12.0 | 18.0 | 0.03 | 0.03 | 0.03 | 89 | 1019.8 |
| 20260510043727 | 50 | 51 | 14.0 | 19.0 | 0.03 | 0.03 | 0.03 | 89 | 1019.6 |
| 20260510043225 | 50 | 50 | 14.0 | 17.0 | 0.03 | 0.03 | 0.03 | 88 | 1019.3 |
| 20260510042721 | 50 | 54 | 13.0 | 21.0 | 0.03 | 0.03 | 0.03 | 88 | 1019.1 |
| 20260510042218 | 50 | 65 | 14.0 | 21.0 | 0.03 | 0.03 | 0.03 | 88 | 1019.1 |
| 20260510041733 | 50 | 24 | 6.0 | 20.0 | 0.03 | 0.03 | 0.03 | 87 | 1019.1 |
| 20260510041228 | 51 | 26 | 8.0 | 22.0 | 0.03 | 0.03 | 0.03 | 87 | 1019.0 |
| 20260510040745 | 50 | 69 | 15.0 | 25.0 | 0.02 | 0.02 | 0.02 | 87 | 1018.5 |
| 20260510040221 | 51 | 43 | 19.0 | 27.0 | 0.02 | 0.02 | 0.02 | 86 | 1018.6 |
| 20260510035722 | 51 | 67 | 21.0 | 30.0 | 0.02 | 0.02 | 0.02 | 85 | 1018.2 |
| 20260510035219 | 51 | 56 | 23.0 | 30.0 | 0.02 | 0.02 | 0.02 | 84 | 1018.4 |
| 20260510034716 | 51 | 62 | 21.0 | 28.0 | 0.01 | 0.01 | 0.01 | 82 | 1018.1 |
| 20260510034213 | 52 | 59 | 21.0 | 29.0 | 0.00 | 0.00 | 0.00 | 78 | 1018.0 |
| 20260510033729 | 52 | 38 | 22.0 | 31.0 | 0.00 | 0.00 | 0.00 | 77 | 1018.4 |
| 20260510033226 | 52 | 17 | 19.0 | 31.0 | 0.00 | 0.00 | 0.00 | 75 | 1018.5 |
| 20260510032723 | 52 | 41 | 24.0 | 34.0 | 0.00 | 0.00 | 0.00 | 74 | 1017.9 |
| 20260510032224 | 52 | 47 | 26.0 | 34.0 | 0.00 | 0.00 | 0.00 | 73 | 1017.3 |
| 20260510031721 | 52 | 48 | 27.0 | 34.0 | 0.00 | 0.00 | 0.00 | 73 | 1016.8 |
| 20260510031218 | 52 | 47 | 26.0 | 39.0 | 0.00 | 0.00 | 0.00 | 72 | 1016.7 |
| 20260510030735 | 52 | 45 | 27.0 | 39.0 | 0.00 | 0.00 | 0.00 | 72 | 1016.3 |
| 20260510030230 | 52 | 38 | 26.0 | 38.0 | 0.00 | 0.00 | 0.00 | 72 | 1016.0 |
| 20260510025746 | 53 | 42 | 28.0 | 38.0 | 0.00 | 0.00 | 0.00 | 71 | 1015.8 |
| 20260510025222 | 53 | 43 | 30.0 | 38.0 | 0.00 | 0.00 | 0.00 | 69 | 1015.6 |
| 20260510024718 | 53 | 36 | 29.0 | 37.0 | 0.00 | 0.00 | 0.00 | 70 | 1015.6 |
| 20260510024219 | 53 | 24 | 28.0 | 38.0 | 0.00 | 0.00 | 0.00 | 70 | 1015.4 |
| 20260510023716 | 53 | 36 | 29.0 | 38.0 | 0.00 | 0.00 | 0.00 | 69 | 1014.9 |
| 20260510023212 | 53 | 41 | 28.0 | 40.0 | 0.00 | 0.00 | 0.00 | 68 | 1014.7 |
| 20260510022730 | 54 | 39 | 31.0 | 40.0 | 0.00 | 0.00 | 0.00 | 65 | 1014.6 |
| 20260510022246 | 56 | 30 | 24.0 | 39.0 | 0.00 | 0.00 | 0.00 | 60 | 1014.8 |
| 20260510021722 | 58 | 34 | 24.0 | 32.0 | 0.00 | 0.00 | 0.00 | 56 | 1014.9 |
| 20260510021219 | 61 | 355 | 19.0 | 30.0 | 0.00 | 0.00 | 0.00 | 49 | 1014.6 |
| 20260510020715 | 62 | 360 | 17.0 | 30.0 | 0.00 | 0.00 | 0.00 | 47 | 1014.8 |
| 20260510020217 | 62 | 333 | 16.0 | 23.0 | 0.00 | 0.00 | 0.00 | 50 | 1014.6 |
| 20260510015713 | 61 | 5 | 10.0 | 13.0 | 0.00 | 0.00 | 0.00 | 51 | 1014.1 |
| 20260510015210 | 61 | 5 | 6.0 | 10.0 | 0.00 | 0.00 | 0.00 | 50 | 1013.4 |
| 20260510014726 | 62 | 34 | 6.0 | 10.0 | 0.00 | 0.00 | 0.00 | 50 | 1013.1 |
| 20260510014244 | 62 | 63 | 7.0 | 13.0 | 0.00 | 0.00 | 0.00 | 49 | 1012.7 |
| 20260510013719 | 63 | 71 | 10.0 | 14.0 | 0.00 | 0.00 | 0.00 | 48 | 1012.5 |
| 20260510013216 | 64 | 71 | 11.0 | 16.0 | 0.00 | 0.00 | 0.00 | 47 | 1012.4 |
| 20260510012732 | 64 | 68 | 12.0 | 18.0 | 0.00 | 0.00 | 0.00 | 46 | 1012.3 |
| 20260510012230 | 65 | 69 | 14.0 | 20.0 | 0.00 | 0.00 | 0.00 | 45 | 1012.3 |
| 20260510011727 | 65 | 64 | 14.0 | 19.0 | 0.00 | 0.00 | 0.00 | 45 | 1012.3 |
| 20260510011223 | 65 | 69 | 14.0 | 19.0 | 0.00 | 0.00 | 0.00 | 45 | 1012.1 |
| 20260510010720 | 65 | 82 | 14.0 | 19.0 | 0.00 | 0.00 | 0.00 | 45 | 1012.0 |
| 20260510010216 | 66 | 66 | 15.0 | 22.0 | 0.00 | 0.00 | 0.00 | 45 | 1011.9 |
| 20260510005712 | 66 | 71 | 15.0 | 22.0 | 0.00 | 0.00 | 0.00 | 45 | 1011.7 |
| 20260510005248 | 67 | 74 | 15.0 | 22.0 | 0.00 | 0.00 | 0.00 | 44 | 1011.6 |
| 20260510004744 | 67 | 86 | 16.0 | 23.0 | 0.00 | 0.00 | 0.00 | 43 | 1011.4 |
| 20260510004220 | 68 | 77 | 16.0 | 24.0 | 0.00 | 0.00 | 0.00 | 43 | 1011.4 |
| 20260510003721 | 68 | 57 | 19.0 | 24.0 | 0.00 | 0.00 | 0.00 | 42 | 1011.4 |
| 20260510003216 | 69 | 57 | 17.0 | 23.0 | 0.00 | 0.00 | 0.00 | 41 | 1011.3 |
| 20260510002713 | 70 | 77 | 16.0 | 22.0 | 0.00 | 0.00 | 0.00 | 37 | 1011.3 |
| 20260510002210 | 70 | 74 | 16.0 | 23.0 | 0.00 | 0.00 | 0.00 | 36 | 1011.2 |
| 20260510001727 | 70 | 65 | 18.0 | 25.0 | 0.00 | 0.00 | 0.00 | 37 | 1011.1 |
| 20260510001224 | 70 | 60 | 17.0 | 25.0 | 0.00 | 0.00 | 0.00 | 37 | 1011.1 |
| 20260510000721 | 71 | 65 | 20.0 | 25.0 | 0.00 | 0.00 | 0.00 | 36 | 1011.0 |
| 20260510000222 | 71 | 58 | 21.0 | 25.0 | 0.00 | 0.00 | 0.00 | 36 | 1011.0 |
| 20260509235719 | 72 | 57 | 17.0 | 25.0 | 0.00 | 0.00 | 0.00 | 37 | 1011.0 |
| 20260509235236 | 72 | 51 | 20.0 | 30.0 | 0.00 | 0.00 | 0.00 | 36 | 1010.9 |
| 20260509234712 | 72 | 74 | 22.0 | 30.0 | 0.00 | 0.00 | 0.00 | 36 | 1010.8 |
| 20260509234227 | 73 | 67 | 21.0 | 27.0 | 0.00 | 0.00 | 0.00 | 35 | 1010.8 |
| 20260509233723 | 73 | 48 | 22.0 | 28.0 | 0.00 | 0.00 | 0.00 | 34 | 1010.6 |
| 20260509233220 | 74 | 65 | 19.0 | 24.0 | 0.00 | 0.00 | 0.00 | 33 | 1010.6 |
| 20260509232716 | 75 | 59 | 12.0 | 18.0 | 0.00 | 0.00 | 0.00 | 30 | 1010.4 |
| 20260509232216 | 75 | 57 | 12.0 | 20.0 | 0.00 | 0.00 | 0.00 | 30 | 1010.4 |
| 20260509231712 | 75 | 57 | 13.0 | 20.0 | 0.00 | 0.00 | 0.00 | 30 | 1010.3 |
| 20260509231229 | 75 | 78 | 11.0 | 19.0 | 0.00 | 0.00 | 0.00 | 29 | 1010.3 |
| 20260509230746 | 75 | 59 | 14.0 | 22.0 | 0.00 | 0.00 | 0.00 | 30 | 1010.5 |
| 20260509230222 | 75 | 32 | 15.0 | 22.0 | 0.00 | 0.00 | 0.00 | 29 | 1010.4 |
| 20260509225719 | 75 | 41 | 14.0 | 22.0 | 0.00 | 0.00 | 0.00 | 28 | 1010.3 |
| 20260509225216 | 76 | 46 | 15.0 | 20.0 | 0.00 | 0.00 | 0.00 | 29 | 1010.3 |
| 20260509224732 | 76 | 30 | 11.0 | 21.0 | 0.00 | 0.00 | 0.00 | 30 | 1010.2 |
| 20260509224212 | 76 | 40 | 12.0 | 20.0 | 0.00 | 0.00 | 0.00 | 29 | 1010.3 |
| 20260509223749 | 76 | 42 | 13.0 | 20.0 | 0.00 | 0.00 | 0.00 | 28 | 1010.3 |
| 20260509223225 | 76 | 355 | 13.0 | 20.0 | 0.00 | 0.00 | 0.00 | 26 | 1010.2 |
| 20260509222742 | 76 | 38 | 11.0 | 18.0 | 0.00 | 0.00 | 0.00 | 27 | 1010.3 |
| 20260509222218 | 76 | 45 | 12.0 | 20.0 | 0.00 | 0.00 | 0.00 | 26 | 1010.5 |
| 20260509221715 | 75 | 31 | 10.0 | 20.0 | 0.00 | 0.00 | 0.00 | 28 | 1010.5 |
| 20260509221211 | 75 | 41 | 12.0 | 21.0 | 0.00 | 0.00 | 0.00 | 28 | 1010.5 |
| 20260509220728 | 75 | 32 | 11.0 | 21.0 | 0.00 | 0.00 | 0.00 | 27 | 1010.5 |
| 20260509220225 | 76 | 35 | 11.0 | 20.0 | 0.00 | 0.00 | 0.00 | 28 | 1010.5 |
| 20260509215726 | 76 | 40 | 9.0 | 18.0 | 0.00 | 0.00 | 0.00 | 27 | 1010.5 |
| 20260509215223 | 76 | 348 | 11.0 | 21.0 | 0.00 | 0.00 | 0.00 | 28 | 1010.5 |
| 20260509214740 | 76 | 28 | 14.0 | 18.0 | 0.00 | 0.00 | 0.00 | 27 | 1010.6 |